Weather History for Clinton, BC

Change the Weather History Date:

Saturday, September 1, 2012

  Actual Average Record
Temperature  
Mean Temperature 50 °F -  
Max Temperature 66 °F 65 °F 83 °F (2013)
Min Temperature 33 °F 40 °F 30 °F (1999)
Degree Days  
Heating Degree Days 16    
Moisture  
Dew Point 34 °F    
Average Humidity 63    
Maximum Humidity 87    
Minimum Humidity 23    
Precipitation  
Precipitation 0.00 in - - ()
Sea Level Pressure  
Sea Level Pressure 30.02 in    
Wind  
Wind Speed 3 mph ()    
Max Wind Speed 7 mph    
Max Gust Speed -    
Visibility 9.0 miles    
Events Rain    
Averages and records for this station are not official NWS values.
T = Trace of Precipitation, MM = Missing Value Source: Averaged Metar Reports

Daily Weather History Graph

Daily Weather History Graph

Search for Another Location

Airport:

Trip Planner

Search our weather history database for the weather conditions in past years. The results will help you decide how hot, cold, wet, or windy it might be!

Date:

Astronomy

Sep. 01, 2012 Rise Set
Actual Time 6:20 AM PDT 7:50 PM PDT
Civil Twilight 5:45 AM PDT 8:24 PM PDT
Nautical Twilight 5:03 AM PDT 9:06 PM PDT
Astronomical Twilight 4:16 AM PDT 9:52 PM PDT
Moon 7:50 PM PDT (9/1) 7:48 AM PDT (9/1)
Length of Visible Light 14h 39m
Length of Day
13h 30m
Full, 98% of the Moon is Illuminated
Sep 1
Full
Sep 8
Last Quarter
Sep 15
New
Sep 22
First Quarter
Sep 29
Full

Hourly Weather History & Observations

Time (PDT) Temp. Windchill Dew Point Humidity Pressure Visibility Wind Dir Wind Speed Gust Speed Precip Events Conditions
12:00 AM 37.4 °F 33.8 °F 32.0 °F 81% 30.03 in 9.0 mi NW 4.6 mph - N/A   Clear
1:00 AM 35.6 °F 31.7 °F 30.2 °F 81% 30.05 in 9.0 mi WNW 4.6 mph - N/A   Clear
2:00 AM 35 °F - 29 °F 72% 30.05 in 9 mi WSW 3.5 mph - -  
2:00 AM 35.6 °F 32.8 °F 30.2 °F 81% 30.05 in 9.0 mi WSW 3.5 mph - N/A   Clear
3:00 AM 33.8 °F - 30.2 °F 87% 30.04 in 9.0 mi SSW 2.3 mph - N/A   Partly Cloudy
4:00 AM 37.4 °F 34.9 °F 32.0 °F 81% 30.03 in 9.0 mi SW 3.5 mph - N/A   Scattered Clouds
5:00 AM 36 °F - 31 °F 77% 30.04 in 9 mi SW 3.5 mph - -  
5:00 AM 35.6 °F - 32.0 °F 87% 30.04 in 9.0 mi Calm Calm - N/A   Partly Cloudy
6:00 AM 35.6 °F 31.7 °F 32.0 °F 87% 30.03 in 9.0 mi SW 4.6 mph - N/A   Scattered Clouds
6:22 AM 37.4 °F 34.9 °F 32.0 °F 81% 29.99 in 9.0 mi SW 3.5 mph - N/A Rain Light Rain
6:39 AM 37.4 °F 33.8 °F 33.8 °F 87% 29.99 in 9.0 mi SSW 4.6 mph - N/A   Mostly Cloudy
7:00 AM 39.2 °F 35.9 °F 33.8 °F 81% 30.03 in 9.0 mi SSW 4.6 mph - N/A   Mostly Cloudy
8:00 AM 41 °F - 36 °F 74% 30.04 in 9 mi SSW 3.5 mph - -  
8:00 AM 41.0 °F 39.0 °F 35.6 °F 81% 30.04 in 9.0 mi SW 3.5 mph - N/A   Mostly Cloudy
9:00 AM 44.6 °F 43.1 °F 35.6 °F 71% 30.05 in 9.0 mi South 3.5 mph - N/A   Overcast
10:00 AM 48.2 °F - 37.4 °F 66% 30.05 in 9.0 mi South 3.5 mph - N/A   Overcast
11:00 AM 56 °F - 39 °F 41% 30.03 in 9 mi SSE 4.6 mph - -  
11:00 AM 57.2 °F - 39.2 °F 51% 30.03 in 9.0 mi South 5.8 mph - N/A   Partly Cloudy
12:00 PM 59.0 °F - 39.2 °F 48% 30.01 in 9.0 mi South 5.8 mph - N/A   Mostly Cloudy
1:00 PM 59.0 °F - 35.6 °F 42% 30.00 in 9.0 mi SE 2.3 mph - N/A   Mostly Cloudy
2:00 PM 62 °F - 34 °F 23% 29.99 in 9 mi SSW 5.8 mph - -  
2:00 PM 60.8 °F - 33.8 °F 36% 29.99 in 9.0 mi SSW 4.6 mph - N/A   Mostly Cloudy
3:00 PM 62.6 °F - 32.0 °F 32% 29.98 in 9.0 mi WSW 6.9 mph - N/A   Mostly Cloudy
4:00 PM 62.6 °F - 33.8 °F 34% 29.98 in 9.0 mi WSW 5.8 mph - N/A   Overcast
5:00 PM 62 °F - 34 °F 24% 29.99 in 9 mi NE 2.3 mph - -   Overcast
5:00 PM 62.6 °F - 33.8 °F 34% 29.99 in 9.0 mi NNE 3.5 mph - N/A   Overcast
6:00 PM 57.2 °F - 39.2 °F 51% 30.01 in 9.0 mi East 5.8 mph - N/A   Mostly Cloudy
7:00 PM 55.4 °F - 39.2 °F 54% 30.01 in 9.0 mi NE 3.5 mph - N/A   Clear
8:00 PM 48 °F - 36 °F 52% 30.02 in 9 mi North 3.5 mph - -  
8:00 PM 48.2 °F - 35.6 °F 62% 30.02 in 9.0 mi North 4.6 mph - N/A   Clear
9:00 PM 44.6 °F - 35.6 °F 71% 30.04 in 9.0 mi Calm Calm - N/A   Clear
10:00 PM 42.8 °F - 35.6 °F 76% 30.04 in 9.0 mi Calm Calm - N/A   Clear
11:00 PM 42 °F - 35 °F 69% 30.02 in 9 mi SSW 3.5 mph - -  
11:00 PM 42.8 °F 40.1 °F 35.6 °F 76% 30.02 in 9.0 mi SW 4.6 mph - N/A   Clear